Theta_e
312 312 312 312 311 311 311 311 312 313 312 313 313 313 314 314 313 309 303 306 311 318 314 301 300 297 299 299 301 304 295 292 295 297 299 299 295 295 298 297 296 296 296 298 300
312 311 311 311 311 310 311 311 311 311 311 311 312 312 313 313 305 303 313 318 318 316 300 298 296 297 294 295 298 299 294 295 301 301 299 299 299 295 297 294 293 292 295 297 299
312 311 311 310 310 309 310 310 310 311 311 311 311 312 312 309 300 298 316 316 314 311 301 299 297 297 292 293 295 297 296 300 302 300 298 299 299 300 297 295 297 293 293 295 297
313 311 310 310 309 309 309 309 310 310 310 311 310 312 311 303 284 296 311 312 312 302 299 296 294 292 291 290 294 294 299 300 301 300 297 295 295 293 297 300 300 299 295 295 295
312 311 310 309 309 309 308 309 309 309 309 310 310 311 303 297 296 299 309 305 300 298 296 294 292 292 290 291 292 291 292 296 299 299 298 298 296 293 297 296 294 294 295 294 294
313 311 310 309 308 308 308 308 308 309 309 309 310 310 298 289 296 296 295 295 295 294 293 294 293 294 292 291 290 292 292 292 296 296 295 294 292 295 297 300 294 293 292 293 294
313 311 310 309 308 307 307 307 308 308 309 309 311 305 297 293 293 292 294 293 293 293 292 294 294 293 293 290 292 291 288 289 289 292 292 293 289 289 296 295 298 293 291 292 294
313 312 311 309 308 307 307 307 307 308 308 310 310 301 292 300 291 291 292 292 293 293 294 295 295 294 292 291 289 285 284 281 286 290 291 291 284 290 291 293 293 291 289 291 292
314 312 311 310 309 307 307 307 307 308 309 310 301 298 291 298 290 292 291 291 292 292 293 296 294 290 289 285 282 282 279 280 284 288 287 287 282 288 289 291 292 291 289 290 290
314 313 311 310 309 307 307 307 307 307 304 303 301 287 290 287 290 291 290 292 290 291 291 289 287 284 283 282 277 279 278 280 281 285 284 283 284 288 288 288 290 290 290 291 293
314 313 312 310 308 306 303 298 292 290 291 288 289 285 287 288 290 288 290 290 291 288 282 286 281 279 284 285 282 281 279 280 281 285 284 283 284 287 287 283 284 286 288 290 292
310 312 312 310 306 305 300 294 288 288 281 289 290 290 289 288 284 287 291 286 286 281 284 282 279 284 285 285 284 282 279 279 281 283 282 281 281 283 284 285 286 288 288 289 291
308 310 312 308 304 300 296 295 296 293 281 285 289 288 287 288 285 285 288 286 284 282 283 280 281 285 285 282 281 280 280 278 280 280 279 277 279 279 282 283 285 286 289 290 289
307 310 311 306 298 296 294 296 296 294 278 279 284 286 286 288 283 288 289 287 284 282 283 282 284 282 281 281 282 277 281 281 280 277 273 276 271 275 281 282 282 285 283 284 286
307 312 309 305 297 292 296 296 294 292 269 281 280 288 286 284 283 284 288 286 283 283 283 280 279 280 280 280 283 279 281 280 279 275 273 273 272 274 276 279 283 280 283 282 282
307 310 308 301 297 295 296 294 293 275 264 276 279 279 280 282 282 284 284 287 285 282 281 279 280 280 281 279 281 282 279 278 276 273 266 273 274 273 277 280 279 281 281 282 282
306 308 303 299 292 295 295 292 275 267 278 274 275 279 278 278 279 280 279 278 277 276 276 277 277 278 280 278 280 278 276 271 267 263 267 272 272 278 281 281 279 280 281 281 280
302 299 296 294 297 297 293 282 268 273 273 280 278 278 276 278 278 278 276 274 278 277 276 275 273 276 279 278 277 277 277 272 265 266 270 273 270 276 281 282 281 280 278 281 282
300 294 291 290 296 295 285 273 273 276 279 277 277 276 274 278 278 277 276 275 278 278 276 273 274 275 276 276 278 276 274 277 271 265 266 272 274 279 280 279 279 279 279 279 281
293 289 287 291 295 290 281 277 276 282 280 279 276 278 270 274 275 275 275 279 278 280 282 279 271 274 275 276 276 276 277 273 271 263 263 270 271 274 276 277 279 278 278 279 282
290 286 286 291 293 284 275 273 277 283 283 279 276 274 277 276 275 274 277 279 280 279 283 279 278 271 274 272 274 274 273 273 274 272 267 266 271 277 278 278 278 279 280 281 283
283 272 288 290 275 280 272 279 284 281 283 281 281 278 277 278 274 275 275 279 282 281 278 280 277 269 272 273 274 273 274 274 270 268 270 269 272 280 280 279 280 280 282 282 282
274 279 288 288 272 271 277 279 282 281 281 280 279 281 281 279 275 278 279 279 281 280 278 279 275 266 271 272 272 268 273 276 276 274 267 267 273 277 278 279 282 282 282 281 280
278 271 277 283 281 275 271 272 275 283 280 282 281 282 280 278 281 278 279 279 279 280 285 283 275 272 271 273 272 267 269 275 274 266 270 273 275 276 278 278 281 281 281 280 279
278 273 279 268 269 276 277 273 275 274 279 281 279 279 278 275 276 277 280 281 281 281 280 280 272 269 270 273 272 270 267 271 272 274 270 274 275 276 279 280 281 280 280 281 282
267 266 268 270 266 268 269 270 275 276 273 273 276 278 279 276 276 274 276 278 278 278 278 276 270 271 272 275 275 272 272 271 273 274 272 274 274 279 281 281 279 280 281 280 279
276 281 274 269 263 270 268 273 275 275 276 279 277 275 275 278 281 281 281 280 279 278 276 275 274 271 269 274 275 272 276 271 272 269 273 271 277 282 281 280 279 281 280 278 277
Wind_Speed
10 11 11 12 13 13 13 14 13 13 13 15 14 15 15 16 16 4 7 10 6 7 3 1 1 2 2 3 4 4 2 4 6 7 7 3 4 2 3 5 2 4 5 5 16
9 11 11 11 12 13 14 13 14 13 13 13 15 14 15 15 6 9 8 8 9 7 4 5 4 5 2 4 4 5 4 9 8 5 5 5 6 7 3 2 4 2 3 8 19
9 10 12 13 13 14 14 14 13 13 14 12 14 13 12 9 4 9 8 10 8 5 2 2 1 4 3 4 4 6 8 6 4 4 4 3 1 7 6 6 8 12 9 12 15
10 10 11 12 13 14 15 15 14 14 14 12 12 12 12 1 8 2 6 7 6 4 4 4 3 4 5 6 6 4 9 5 3 4 4 4 3 4 7 9 4 7 17 15 17
9 9 12 11 12 15 16 16 15 15 14 13 10 11 4 3 10 4 5 5 4 6 6 6 6 5 6 5 5 5 4 5 5 7 5 5 6 4 12 8 2 7 12 17 15
9 9 10 12 13 15 15 17 17 16 15 12 11 8 2 5 2 7 5 5 4 5 5 6 8 5 4 4 5 2 3 3 6 5 3 5 2 5 12 7 8 9 13 14 16
11 11 10 11 12 13 16 17 17 17 15 13 11 4 4 15 2 5 6 3 2 3 4 4 4 5 3 3 1 1 4 5 7 6 6 5 5 12 13 4 11 10 9 11 16
12 13 13 12 12 12 13 17 17 17 15 13 10 3 10 4 3 3 3 2 2 3 2 2 2 3 3 2 3 1 0 4 4 8 5 10 12 12 3 9 12 11 9 11 14
15 14 14 13 13 10 13 16 18 18 14 12 4 3 11 1 3 5 6 3 4 3 3 1 3 4 1 5 4 3 6 6 7 9 5 7 5 6 1 7 11 9 10 10 9
16 15 14 13 11 11 13 17 16 10 6 3 4 2 6 5 3 3 4 3 3 4 3 3 3 4 2 5 12 8 5 5 6 5 3 4 13 9 8 4 10 10 10 11 16
14 16 15 13 8 8 9 4 3 2 4 10 7 4 2 2 1 3 3 5 4 3 7 5 5 12 18 14 4 6 4 6 3 5 5 9 14 14 11 6 11 13 13 16 20
18 19 14 9 2 7 2 4 3 3 10 13 19 11 4 3 2 5 6 8 7 7 5 3 16 14 5 6 6 6 5 11 6 4 6 6 14 10 9 10 13 18 19 21 17
20 21 13 10 3 2 2 2 4 3 5 8 6 5 6 7 6 7 10 6 6 8 12 8 3 9 12 6 8 7 13 4 8 3 3 5 13 8 10 9 10 15 21 15 14
19 21 18 14 3 0 2 1 3 1 3 7 3 2 1 6 6 1 9 4 6 14 7 9 5 5 6 8 8 7 7 6 4 2 5 2 11 6 6 9 7 15 8 11 11
21 17 18 9 8 3 3 3 2 1 3 2 1 2 1 4 2 3 2 1 5 8 8 9 7 7 5 6 9 6 5 5 3 3 2 3 3 3 1 8 15 4 7 9 9
10 15 17 4 1 0 1 2 2 5 11 4 1 1 3 2 1 1 3 4 4 1 1 2 1 3 3 3 2 8 6 7 5 3 4 9 9 5 6 10 3 1 5 8 9
8 11 6 3 1 2 3 2 3 5 4 5 4 5 3 5 4 4 5 6 6 6 8 2 2 1 3 5 4 3 7 1 4 3 9 2 4 13 10 4 1 3 5 7 6
17 13 11 8 4 4 4 3 5 5 7 3 1 2 6 8 4 5 5 4 7 1 2 10 8 8 5 5 9 7 8 8 9 6 4 4 9 10 3 5 6 5 2 6 8
5 3 4 8 7 2 4 3 7 5 3 3 1 5 4 4 4 5 7 5 8 13 9 6 4 1 3 2 2 7 8 4 7 3 4 6 8 11 4 5 5 7 5 4 5
1 2 2 8 6 3 1 4 5 3 7 3 3 3 3 3 5 5 6 4 5 13 2 4 1 2 1 0 0 2 3 4 2 4 5 5 6 8 4 8 7 5 4 2 4
2 2 2 7 2 1 3 5 5 4 9 7 4 5 3 4 4 5 4 5 2 2 5 2 3 1 2 7 8 3 3 0 3 5 7 2 8 9 9 9 9 7 3 3 5
3 1 3 4 1 2 2 3 4 4 2 4 3 5 5 3 2 5 7 5 1 3 7 6 4 4 6 1 1 1 5 6 6 6 3 3 11 2 10 9 8 4 5 1 3
2 2 1 2 2 2 3 4 4 2 2 3 3 4 3 3 3 3 4 4 3 1 3 3 3 3 4 2 3 4 5 4 3 2 6 8 8 2 7 6 6 7 4 3 6
2 4 2 1 2 2 1 5 3 5 5 5 4 2 3 4 5 4 3 4 5 2 3 3 3 5 10 5 5 5 5 7 4 4 5 14 6 6 5 3 5 1 6 5 4
0 4 1 3 5 4 2 2 6 4 2 2 2 4 5 4 3 8 7 5 3 3 1 4 6 4 3 3 4 5 5 6 15 14 10 9 17 6 3 6 8 7 8 8 9
2 3 4 3 3 1 4 4 5 5 3 5 3 6 4 2 5 6 5 4 3 3 3 1 4 3 4 3 4 4 8 8 15 14 14 14 32 6 5 2 6 6 5 7 7
2 2 3 4 3 0 5 5 3 4 4 3 5 4 5 6 5 7 7 7 9 5 4 3 5 2 5 2 5 11 19 14 8 7 8 16 28 2 5 7 4 4 3 3 5
Wind_Direction
317 314 319 318 321 323 319 314 316 317 316 315 313 315 314 315 317 282 225 225 187 174 197 258 236 209 123 216 195 138 107 225 220 200 235 183 157 228 331 118 246 193 148 162 146
307 313 310 308 319 319 312 315 315 314 309 311 310 313 317 319 298 244 243 184 169 176 184 190 209 159 200 220 203 144 176 217 214 206 222 203 172 181 154 137 240 220 30 148 159
289 302 306 309 309 310 311 314 312 312 306 308 306 310 319 327 290 239 176 178 178 181 175 151 220 169 217 191 210 190 217 199 248 209 187 217 214 181 159 221 208 204 171 168 168
284 286 293 308 309 307 309 307 311 310 305 305 305 312 315 175 239 175 168 184 189 162 155 163 177 185 205 208 216 187 236 209 224 206 158 201 173 205 193 228 304 208 166 168 183
269 283 294 307 305 306 307 307 310 310 303 299 307 313 350 233 253 172 163 169 146 148 187 181 172 178 189 208 207 221 225 219 205 200 198 129 230 204 246 243 129 116 164 184 189
247 270 282 296 308 299 303 306 307 308 300 299 302 306 211 245 182 160 163 142 197 172 192 181 202 206 228 233 176 241 201 212 216 218 218 191 217 150 254 192 207 180 192 194 200
231 241 249 276 292 297 302 300 301 303 297 295 295 288 250 238 282 184 168 200 195 196 180 206 220 195 169 280 215 141 271 292 227 201 224 142 269 232 243 165 228 217 209 205 212
227 240 251 235 252 286 294 297 300 298 295 289 283 258 249 256 199 199 188 249 238 209 192 232 216 148 184 241 36 215 312 249 274 164 226 148 254 265 233 178 230 226 217 218 216
230 238 245 259 270 276 296 298 296 289 280 270 281 193 263 201 197 205 168 200 175 210 203 171 115 180 123 104 12 266 234 221 313 194 140 187 252 258 30 196 243 230 228 226 235
233 235 243 252 260 293 303 309 289 277 276 237 253 356 250 228 161 170 164 169 172 138 89 135 80 160 117 135 214 196 222 242 214 204 184 223 258 275 268 227 246 253 241 227 230
307 235 234 234 255 298 328 12 351 306 247 203 200 229 134 22 60 204 180 145 121 135 173 209 158 197 200 198 151 157 195 222 225 210 199 225 245 251 261 234 256 251 246 235 229
317 325 218 216 220 307 300 99 83 246 298 244 245 241 265 180 220 229 138 161 165 197 156 123 232 215 169 183 211 240 257 261 284 227 181 266 264 248 242 241 228 242 243 241 241
306 313 208 162 146 294 268 138 335 1 265 282 208 214 187 161 226 213 163 173 178 183 198 190 234 183 172 174 186 221 226 212 232 325 261 340 280 237 255 256 258 248 247 258 235
300 300 161 136 146 337 249 259 333 336 290 269 219 244 183 161 245 195 197 171 208 200 157 242 225 157 173 209 156 226 194 180 198 129 247 102 288 293 233 267 264 262 273 263 229
314 145 153 155 134 172 223 222 282 182 321 272 232 322 98 199 91 16 329 280 206 185 153 224 169 172 175 202 164 226 151 168 138 155 355 213 310 245 338 272 256 344 323 307 273
335 155 153 123 126 13 98 326 78 46 252 285 346 115 121 318 62 92 135 72 304 226 333 275 347 159 187 84 124 144 86 49 54 70 308 186 172 234 192 223 9 44 349 339 338
304 267 126 62 102 87 53 25 45 170 317 258 191 179 153 203 203 167 165 184 176 145 219 81 227 114 132 96 24 108 109 320 349 4 233 179 191 259 283 260 259 352 337 338 339
32 38 63 34 3 30 54 70 197 215 258 351 123 134 186 160 232 195 155 214 242 213 112 194 235 169 180 194 174 189 167 168 195 200 247 107 228 251 267 151 104 95 306 18 1
52 18 23 345 346 352 118 195 221 231 273 316 300 234 241 194 189 168 208 213 210 184 190 162 232 52 57 344 114 183 211 155 101 44 50 221 278 302 168 108 105 96 92 64 350
68 99 20 324 339 17 237 248 247 283 332 318 237 221 242 253 162 191 193 205 226 193 181 196 89 33 36 341 89 180 194 102 358 151 234 263 266 228 132 161 145 139 156 68 16
30 324 324 335 255 34 222 248 293 1 4 350 324 303 284 219 198 196 236 287 272 89 130 147 130 77 80 205 178 166 199 127 127 159 179 215 256 221 157 163 156 197 140 48 17
19 5 347 334 27 188 227 243 306 278 128 269 275 285 270 311 272 221 228 212 329 179 165 203 126 169 197 105 33 256 214 165 142 223 229 151 262 218 148 146 142 167 123 281 295
340 261 103 300 244 250 297 259 228 254 231 226 271 253 8 259 306 266 269 25 19 152 181 219 223 69 329 359 7 191 196 210 158 98 209 138 262 62 123 131 144 131 169 259 284
340 327 316 262 279 237 261 268 258 217 245 216 234 240 237 238 215 273 264 6 353 7 125 81 301 204 226 187 140 182 215 200 153 160 156 232 241 175 217 277 149 270 297 276 271
334 242 139 284 282 240 316 281 284 280 255 258 268 216 240 260 232 236 249 270 188 214 29 150 227 189 249 209 158 192 176 192 207 215 192 259 233 149 235 350 336 323 336 341 339
150 99 356 274 298 176 241 240 229 278 144 274 249 312 312 297 347 312 23 13 318 8 166 212 259 166 253 201 240 277 229 194 219 239 264 288 275 171 183 274 284 292 323 320 331
230 251 126 267 304 241 224 238 16 2 299 81 10 338 311 297 260 245 203 228 227 260 216 225 186 108 257 168 111 277 246 207 205 202 175 225 244 133 193 172 202 260 264 311 330